Weather History for KFQD - February, 2013

Change the Weather History Date:

Tuesday, February 12, 2013

  Actual Average (KAVL) Record (KAVL)
Temperature  
Mean Temperature 48 °F 40 °F  
Max Temperature 56 °F 50 °F 73 °F (1922)
Min Temperature 39 °F 29 °F 6 °F (1981)
Degree Days  
Heating Degree Days 18 25  
Month to date heating degree days 314  
Since 1 July heating degree days 2841  
Cooling Degree Days 0 0  
Month to date cooling degree days 0  
Year to date cooling degree days 0  
Moisture  
Dew Point 32 °F    
Average Humidity 55    
Maximum Humidity 85    
Minimum Humidity 29    
Precipitation  
Precipitation 0.01 in 0.14 in 2.70 in (1873)
Month to date precipitation 1.59  
Year to date precipitation 5.26  
Snow  
Snow 0.00 in 0.00 in 7.10 in (2014)
Month to date snowfall 1.0  
Since 1 July snowfall 6.1  
Snow Depth -    
Sea Level Pressure  
Sea Level Pressure 30.02 in    
Wind  
Wind Speed 2 mph (North)    
Max Wind Speed 7 mph    
Max Gust Speed -    
Visibility 10 miles    
Events Rain    
T = Trace of Precipitation, MM = Missing Value Source: NWS Daily Summary

Daily Weather History Graph

Daily Weather History Graph

Search for Another Location

Airport or City:

Trip Planner

Search our weather history database for the weather conditions in past years. The results will help you decide how hot, cold, wet, or windy it might be!

Date:

Astronomy

Feb. 12, 2013 Rise Set
Actual Time 7:17 AM EST 6:07 PM EST
Civil Twilight 6:51 AM EST 6:33 PM EST
Nautical Twilight 6:21 AM EST 7:03 PM EST
Astronomical Twilight 5:51 AM EST 7:32 PM EST
Moon 8:21 AM EST (2/12) 8:57 PM EST (2/12)
Length of Visible Light 11h 42m
Length of Day
10h 50m
Waxing Crescent, 7% of the Moon is Illuminated
Feb 12
Waxing Crescent
Feb 17
First Quarter
Feb 25
Full
Mar 4
Last Quarter
Mar 11
New

Hourly Weather History & Observations

Time (EST) Temp. Windchill Dew Point Humidity Pressure Visibility Wind Dir Wind Speed Gust Speed Precip Events Conditions
12:15 AM 51.4 °F - 37.4 °F 59% 30.02 in 10.0 mi Calm Calm - N/A   Clear
12:35 AM 48.7 °F - 37.9 °F 66% 30.02 in 10.0 mi South 3.5 mph - N/A   Clear
12:55 AM 49.5 °F - 34.3 °F 56% 30.02 in 10.0 mi South 5.8 mph - N/A   Clear
1:15 AM 49.1 °F - 35.4 °F 59% 30.02 in 10.0 mi South 5.8 mph - N/A   Clear
1:35 AM 50.0 °F - 38.3 °F 64% 30.01 in 10.0 mi Calm Calm - N/A   Clear
1:55 AM 50.4 °F - 34.5 °F 55% 30.02 in 10.0 mi Calm Calm - N/A   Clear
2:15 AM 47.7 °F - 32.9 °F 57% 30.02 in 10.0 mi WNW 3.5 mph - N/A   Clear
2:35 AM 46.6 °F - 39.2 °F 75% 30.02 in 10.0 mi North 5.8 mph - N/A   Clear
2:55 AM 44.4 °F - 38.1 °F 79% 30.03 in 10.0 mi Calm Calm - N/A   Clear
3:15 AM 45.5 °F - 39.7 °F 80% 30.03 in 10.0 mi Calm Calm - N/A   Clear
3:35 AM 45.3 °F - 38.1 °F 76% 30.01 in 10.0 mi Calm Calm - N/A   Clear
3:55 AM 45.9 °F 44.6 °F 36.1 °F 69% 30.02 in 10.0 mi North 3.5 mph - N/A   Clear
4:15 AM 45.9 °F - 34.2 °F 64% 30.03 in 10.0 mi Calm Calm - N/A   Clear
4:35 AM 45.1 °F - 33.4 °F 64% 30.03 in 10.0 mi Calm Calm - N/A   Clear
4:55 AM 43.9 °F - 34.9 °F 71% 30.04 in 10.0 mi Calm Calm - N/A   Clear
5:15 AM 43.5 °F - 33.4 °F 68% 30.04 in 10.0 mi Calm Calm - N/A   Clear
5:35 AM 43.2 °F 41.5 °F 32.7 °F 67% 30.02 in 10.0 mi ENE 3.5 mph - N/A   Clear
5:55 AM 42.6 °F - 32.0 °F 66% 30.05 in 10.0 mi Calm Calm - N/A   Clear
6:15 AM 43.2 °F 39.7 °F 27.9 °F 55% 30.04 in 10.0 mi NE 5.8 mph - N/A   Clear
6:35 AM 43.0 °F 38.8 °F 26.6 °F 52% 30.05 in 10.0 mi NNE 6.9 mph - N/A   Clear
6:55 AM 41.7 °F - 27.7 °F 58% 30.05 in 10.0 mi Calm Calm - N/A   Clear
7:15 AM 40.1 °F - 30.0 °F 67% 30.06 in 10.0 mi Calm Calm - N/A   Clear
7:35 AM 40.5 °F - 29.8 °F 66% 30.06 in 10.0 mi Calm Calm - N/A   Clear
7:55 AM 39.7 °F 37.6 °F 30.4 °F 69% 30.09 in 10.0 mi NNW 3.5 mph - N/A   Clear
8:15 AM 42.3 °F - 26.8 °F 54% 30.09 in 10.0 mi Calm Calm - N/A   Clear
8:35 AM 44.6 °F - 27.9 °F 52% 30.09 in 10.0 mi Calm Calm - N/A   Clear
8:55 AM 45.9 °F - 28.6 °F 51% 30.11 in 10.0 mi Calm Calm - N/A   Clear
9:15 AM 48.4 °F - 28.9 °F 47% 30.11 in 10.0 mi North 4.6 mph - N/A   Clear
9:35 AM 50.2 °F - 27.0 °F 41% 30.12 in 10.0 mi North 5.8 mph - N/A   Clear
9:55 AM 50.2 °F - 27.1 °F 41% 30.11 in 10.0 mi North 3.5 mph - N/A   Clear
10:15 AM 52.2 °F - 26.4 °F 37% 30.10 in 10.0 mi North 5.8 mph - N/A   Clear
10:35 AM 53.4 °F - 25.5 °F 34% 30.09 in 10.0 mi North 5.8 mph - N/A   Clear
10:55 AM 54.1 °F - 25.5 °F 33% 30.08 in 10.0 mi North 5.8 mph - N/A   Clear
11:15 AM 54.9 °F - 24.3 °F 31% 30.08 in 10.0 mi Calm Calm - N/A   Clear
11:35 AM 55.6 °F - 24.3 °F 30% 30.06 in 7.0 mi Calm Calm - N/A   Clear
11:55 AM 55.8 °F - 23.9 °F 29% 30.07 in 10.0 mi Calm Calm - N/A   Clear
12:15 PM 55.4 °F - 23.2 °F 29% 30.06 in 10.0 mi Calm Calm - N/A   Clear
12:35 PM 56.1 °F - 25.3 °F 31% 30.05 in 10.0 mi South 4.6 mph - N/A   Clear
12:55 PM 55.4 °F - 25.5 °F 32% 30.05 in 10.0 mi Calm Calm - N/A   Clear
1:15 PM 55.8 °F - 27.0 °F 33% 30.04 in 10.0 mi Calm Calm - N/A   Clear
1:35 PM 56.3 °F - 27.1 °F 33% 30.03 in 10.0 mi West 3.5 mph - N/A   Clear
1:55 PM 55.6 °F - 26.1 °F 32% 30.02 in 10.0 mi Calm Calm - N/A   Clear
2:15 PM 55.6 °F - 26.1 °F 32% 30.02 in 10.0 mi Calm Calm - N/A   Clear
2:35 PM 55.6 °F - 27.1 °F 34% 30.01 in 10.0 mi SSW 4.6 mph - N/A   Clear
2:55 PM 55.4 °F - 25.3 °F 31% 30.01 in 10.0 mi Calm Calm - N/A   Clear
3:15 PM 55.4 °F - 27.1 °F 34% 30.01 in 10.0 mi Calm Calm - N/A   Clear
3:35 PM 55.4 °F - 26.6 °F 33% 30.01 in 10.0 mi Calm Calm - N/A   Clear
3:55 PM 54.5 °F - 31.3 °F 41% 30.01 in 10.0 mi Calm Calm - N/A   Clear
4:15 PM 54.5 °F - 29.8 °F 39% 30.02 in 10.0 mi Calm Calm - N/A   Scattered Clouds
4:35 PM 53.6 °F - 31.8 °F 44% 30.01 in 10.0 mi Calm Calm - N/A   Mostly Cloudy
4:55 PM 52.7 °F - 32.4 °F 46% 29.98 in 10.0 mi Calm Calm - N/A   Overcast
5:15 PM 53.8 °F - 31.6 °F 43% 29.99 in 10.0 mi Calm Calm - N/A   Overcast
5:35 PM 53.6 °F - 30.2 °F 41% 29.97 in 10.0 mi Calm Calm - N/A   Overcast
5:55 PM 51.4 °F - 34.2 °F 52% 29.98 in 10.0 mi Calm Calm - N/A   Mostly Cloudy
6:15 PM 51.1 °F - 34.5 °F 53% 29.93 in 10.0 mi ESE 5.8 mph - N/A Rain Light Rain
6:35 PM 51.4 °F - 32.4 °F 48% 29.94 in 10.0 mi ESE 3.5 mph - N/A   Mostly Cloudy
6:55 PM 51.3 °F - 32.2 °F 48% 29.92 in 10.0 mi Calm Calm - N/A   Mostly Cloudy
7:15 PM 48.2 °F - 38.1 °F 68% 29.98 in 10.0 mi Calm Calm - N/A   Overcast
7:35 PM 48.9 °F - 35.2 °F 59% 29.99 in 10.0 mi SSW 4.6 mph - N/A Rain Light Rain
7:55 PM 47.5 °F - 38.7 °F 71% 29.98 in 10.0 mi Calm Calm - N/A Rain Light Rain
8:15 PM 48.4 °F - 36.3 °F 63% 29.99 in 10.0 mi WNW 3.5 mph - N/A   Light Drizzle
8:35 PM 47.3 °F - 38.1 °F 70% 29.97 in 10.0 mi North 6.9 mph - N/A Rain Rain
9:15 PM 45.3 °F - 41.2 °F 85% 30.00 in 10.0 mi Calm Calm - N/A Rain Light Rain
9:35 PM 45.7 °F 42.7 °F 41.0 °F 84% 30.00 in 10.0 mi North 5.8 mph - N/A   Overcast
9:55 PM 46.2 °F 43.3 °F 39.6 °F 78% 29.99 in 10.0 mi NNE 5.8 mph - N/A   Overcast
10:15 PM 45.7 °F 43.4 °F 39.9 °F 80% 29.97 in 10.0 mi North 4.6 mph - N/A   Overcast
10:35 PM 45.7 °F 43.4 °F 39.4 °F 79% 29.98 in 10.0 mi North 4.6 mph - N/A   Overcast
10:55 PM 45.7 °F 42.7 °F 38.5 °F 76% 29.96 in 10.0 mi North 5.8 mph - N/A   Overcast
11:15 PM 45.1 °F 42.0 °F 38.7 °F 78% 29.95 in 10.0 mi NNE 5.8 mph - N/A   Overcast
11:35 PM 45.1 °F 43.7 °F 38.1 °F 76% 29.95 in 10.0 mi North 3.5 mph - N/A Rain Light Rain
11:55 PM 44.1 °F - 39.2 °F 83% 29.95 in 10.0 mi Calm Calm - 0.01 in Rain Light Rain